Regional Weather Roundup
Issued by NWS

Home | Current Version | Previous Version | Graphics & Text | Print | Product List | Glossary On
Versions: 1 2 3 4 5 6 7 8 9 10 11 12 13 14 15 16 17 18 19 20 21 22 23 24 25 26 27 28 29 30 31 32 33 34 35 36 37 38 39 40 41 42 43 44 45 46 47 48 49 50
966
ASUS45 KABQ 070101
RWRNM
NEW MEXICO REGIONAL WEATHER ROUNDUP
NATIONAL WEATHER SERVICE ALBUQUERQUE NM
600 PM MST SAT FEB 06 2016

NOTE: "FAIR" MEANS FEW OR NO CLOUDS BELOW 12,000 FEET AGL WITH NO
       SIGNIFICANT WEATHER OR OBSTRUCTIONS TO VISION.

      THIS PRODUCT IS RELEASED AS TWO VERSIONS.  ONE VERSION NEAR
      THE TOP OF THE HOUR CONTAINING PRELIMINARY DATA FROM ALBUQUERQUE
      AND OTHER STATIONS.  A FINAL VERSION WITH ADDITIONAL DATA IS
      ISSUED ABOUT 10 MINUTES AFTER THE HOUR.

NMZ501-503-504-510>518-070200-
NORTHWEST PLATEAU/NORTHCENTRAL MOUNTAINS

CITY           SKY/WX    TMP DP  RH WIND       PRES   REMARKS
FARMINGTON     CLEAR     35  16  45 W6        30.37S WCI  30
SANTA FE       CLEAR     35  12  38 W6        30.31R WCI  30
TAOS           CLOUDY    28  12  50 N5        30.35  WCI  23

$$
NMZ402-403-502-505>509-070200-
WESTCENTRAL MOUNTAINS/SOUTHWEST MOUNTAINS

CITY           SKY/WX    TMP DP  RH WIND       PRES   REMARKS
GALLUP         PTCLDY    35  17  47 E7        30.39R WCI  29
SILVER CITY      N/A     45   1  16 S6        30.35S

$$
NMZ407-409-411-412-070200-
SOUTHERN DESERTS

CITY           SKY/WX    TMP DP  RH WIND       PRES   REMARKS
DEMING         PTCLDY    49   3  15 SW5       30.32S
HOLLOMAN AFB   CLEAR     50   5  16 NW5       30.29F
ALAMOGORDO     CLEAR     48   1  14 NW7       30.31R
T OR C         PTCLDY    49   4  16 S5        30.31S

$$
NMZ519>523-070200-
CENTRAL VALLEYS/CENTRAL HIGHLANDS

CITY           SKY/WX    TMP DP  RH WIND       PRES   REMARKS
ALBUQUERQUE    CLEAR     47  13  25 N9        30.34R
DOUBLE EAGLE   CLEAR     37  16  41 N9        30.35R WCI  31
CLINES CORNERS CLEAR     33  16  49 NW21      30.26S WCI  21
BELEN          FAIR      44   6  20 CALM      30.33S
SOCORRO        NOT AVBL

$$
NMZ524>526-539-540-070200-
SOUTHCENTRAL MOUNTAINS

CITY           SKY/WX    TMP DP  RH WIND       PRES   REMARKS
RUIDOSO          N/A     41   1  19 NW8       30.32R

$$
NMZ527>531-070200-
NORTHEAST HIGHLANDS/NORTHEAST PLAINS

CITY           SKY/WX    TMP DP  RH WIND       PRES   REMARKS
LAS VEGAS      CLEAR     39  16  39 S8        30.21R WCI  33
RATON          CLEAR     36  14  40 SW9       30.19R WCI  29
CLAYTON        CLEAR     39   5  24 SW10      30.17R WCI  32

$$
NMZ532>537-070200-
EASTCENTRAL PLAINS

CITY           SKY/WX    TMP DP  RH WIND       PRES   REMARKS
TUCUMCARI      CLEAR     44   9  23 CALM      30.14F
CANNON AFB     CLEAR     45  10  24 S7        30.19R
CLOVIS AIRPORT CLEAR     43  10  26 S9        30.21R

$$
NMZ028-029-538-070200-
SOUTHEAST PLAINS

CITY           SKY/WX    TMP DP  RH WIND       PRES   REMARKS
ROSWELL        CLEAR     51  11  20 S9        30.20F
ARTESIA        CLEAR     50  10  20 S13       30.22F
CARLSBAD       CLEAR     49   7  18 W3        30.22F
HOBBS          CLEAR     46   1  15 S7        30.26S


$$




USA.gov is the U.S. government's official web portal to all federal, state and local government web resources and services.